Regional Weather Roundup
Issued by NWS

Home | Current Version | Previous Version | Graphics & Text | Print | Product List | Glossary On
Versions: 1 2 3 4 5 6 7 8 9 10 11 12 13 14 15 16 17 18 19 20 21 22 23 24 25 26 27 28 29 30 31 32 33 34 35 36 37 38 39 40 41 42 43 44 45 46 47 48 49 50
000
ASUS43 KLSX 290259
RWRMO

WEATHER SUMMARY FOR MISSOURI
NATIONAL WEATHER SERVICE SPRINGFIELD MO
1000 PM CDT FRI APR 28 2017

NOTE: "FAIR" INDICATES FEW OR NO CLOUDS BELOW 12,000 FEET WITH NO
       SIGNIFICANT WEATHER AND/OR OBSTRUCTIONS TO VISIBILITY.
       CURRENT SKY AND/OR WEATHER CONDITIONS ARE NOT AVAILABLE FOR
       CHILLICOTHE AND FARMINGTON.

MOZ001>031-035>038-043-044-053-054-290400-
...NORTHERN AND WESTERN MISSOURI...

CITY           SKY/WX    TMP DP  RH WIND       PRES   REMARKS
KANSAS CTY INT DRZL/FOG  45  44  97 N10       29.94R VSB 1/2
KANSAS C DTWN  CLOUDY    49  47  93 NE10      29.93R
LEE`S SUMMIT   CLOUDY    49  49 100 N14       29.92R FOG
ST JOSEPH      CLOUDY    44  44 100 N14       29.97R
CHILLICOTHE      N/A     46  43  89 N6        29.96R
KIRKSVILLE     CLOUDY    45  31  58 N10       29.95R HAZE

$$
MOZ066>068-077>081-088>096-101>105-290400-
...SOUTHWEST MISSOURI...

CITY           SKY/WX    TMP DP  RH WIND       PRES   REMARKS
SPRINGFIELD    CLOUDY    63  61  93 N8        29.79F
JOPLIN         CLOUDY    64  62  93 N7        29.81R

$$
MOZ032>034-039>042-045>050-055>058-069>072-290400-
...CENTRAL MISSOURI...

CITY           SKY/WX    TMP DP  RH WIND       PRES   REMARKS
COLUMBIA       CLOUDY    59  58  96 N5        29.89R
JEFFERSON CITY CLOUDY    62  58  86 SE3       29.87R
ROLLA          CLOUDY    60  60 100 CALM      29.86R FOG
SEDALIA        CLOUDY    60  60 100 NE3       29.88R
OSAGE BEACH    CLOUDY    61  60  97 N5        29.86R FOG

$$
MOZ051-052-059>065-290400-
...EAST CENTRAL MISSOURI...

CITY           SKY/WX    TMP DP  RH WIND       PRES   REMARKS
ST LOUIS INTL  CLOUDY    60  56  86 SE5       29.87R
SPIRIT OF STL  MOCLDY    58  58 100 E3        29.85R FOG
ST CHARLES     CLOUDY    58  58 100 CALM      29.87R

$$
MOZ072>076-082>087-097>100-106>115-290400-
...SOUTH CENTRAL AND SOUTHEAST MISSOURI...

CITY           SKY/WX    TMP DP  RH WIND       PRES   REMARKS
CAPE GIRARDEAU TSTM      70  68  93 W15G30    29.77F FOG
FARMINGTON     FOG       63  62  97 N3        29.83F VSB 3/4
POPLAR BLUFF   PTCLDY    66  66 100 CALM      29.78S FOG
WEST PLAINS    CLOUDY    64  63  96 NE3       29.83R FOG

$$



USA.gov is the U.S. government's official web portal to all federal, state and local government web resources and services.